Flag for U.S.A. Weather past 2 weeks in Dallas, Texas, U.S.A.

Now
83 °F

Passing clouds.


Feels Like: 85 °F
Forecast: 78 / 101 °F
Wind: No wind

Location: Dallas Love Field

Current Time: Jul 30, 2015 at 7:54:17 AM

Latest Report: Jul 30, 2015 at 6:53 AM


Visibility: 10 mi

Pressure: 30.03 "Hg

Humidity: 57%

Dew point: 66 °F

Location of DallasLocation

Historic Weather in Dallas — Graph

°F

Dallas temperature yesterday

Maximum temperature yesterday: 100 °F (at 4:53 PM)
Minimum temperature yesterday: 81 °F (at 6:53 AM)
Average temperature yesterday: 91 °F

Past Weeks' High & Low Weather Summary

 TemperatureHumidityPressure
High100 °F (Jul 20, 4:53 PM)74% (Jul 18, 5:53 AM)30.03 "Hg (Jul 18, 5:53 AM)
Low79 °F (Jul 15, 6:53 AM)29% (Jul 25, 4:53 PM)29.77 "Hg (Jul 21, 6:53 PM)
Average90 °F49%29.90 "Hg
* Reported Jul 15 6:53 AM — Jul 30 6:53 AM, Dallas, Weather by CustomWeather, © 2015

Note: Actual official high and low records may vary slightly from our data, if they occured in-between our weather recording intervals... More about our weather records

Advertising

Dallas weather history for previous 24 hours

 ConditionsComfort  
Time TempWeatherWind HumidityBarometerVisibility
6:53 AM
Thu, Jul 30
83 °FPassing clouds.No wind57%30.03 "Hg10 mi
5:53 AM82 °FClear.No wind58%30.02 "Hg10 mi
4:53 AM84 °FClear.No wind51%30.01 "Hg10 mi
3:53 AM84 °FClear.5 mph51%30.01 "Hg10 mi
2:53 AM86 °FClear.5 mph46%30.01 "Hg10 mi
1:53 AM87 °FClear.5 mph46%30.01 "Hg10 mi
12:53 AM88 °FClear.6 mph43%30.01 "Hg10 mi
11:53 PM
Wed, Jul 29
89 °FClear.7 mph42%30.01 "Hg10 mi
10:53 PM91 °FClear.8 mph38%30.00 "Hg10 mi
9:53 PM93 °FClear.10 mph36%29.97 "Hg10 mi
8:53 PM94 °FSunny.10 mph36%29.96 "Hg10 mi
7:53 PM96 °FSunny.12 mph31%29.94 "Hg10 mi
6:53 PM98 °FPassing clouds.14 mph31%29.93 "Hg10 mi
5:53 PM99 °FPassing clouds.6 mph30%29.93 "Hg10 mi
4:53 PM100 °FPassing clouds.10 mph31%29.95 "Hg10 mi
3:53 PM99 °FPassing clouds.7 mph32%29.97 "Hg10 mi
2:53 PM99 °FPassing clouds.10 mph33%29.98 "Hg10 mi
1:53 PM98 °FPassing clouds.7 mph35%29.99 "Hg10 mi
12:53 PM95 °FPassing clouds.No wind41%30.01 "Hg10 mi
11:53 AM92 °FScattered clouds.5 mph51%30.02 "Hg10 mi
10:53 AM90 °FPartly sunny.7 mph52%30.02 "Hg10 mi
9:53 AM87 °FPartly sunny.7 mph55%30.02 "Hg10 mi
8:53 AM84 °FScattered clouds.7 mph61%30.01 "Hg10 mi
7:53 AM82 °FPassing clouds.8 mph63%30.00 "Hg10 mi
Weather by CustomWeather, © 2015

See weather overviewHow to use our weather pages